Temp
-5 -5 -5 -5 -5 -5 -5 -6 -6 -5 -5 -6 -6 -6 -6 -6 -6 -6 -6 -5 -5 -5 -5 -5 -6 -6 -6 -6 -6 -6 -6 -6 -6 -6 -6 -6 -6 -6 -6 -6 -6 -6 -6 -6 -6 -6 -6 -6 -6 -6 -6 -6 -6 -6 -7 -7 -7 -7 -7 -7 -7 -8 -8
-5 -5 -5 -5 -5 -5 -6 -6 -6 -6 -6 -6 -6 -6 -6 -6 -6 -6 -6 -6 -5 -5 -5 -5 -6 -6 -6 -6 -6 -6 -6 -6 -6 -6 -6 -6 -6 -6 -6 -6 -6 -6 -6 -6 -6 -6 -7 -7 -7 -7 -7 -7 -7 -7 -7 -7 -7 -7 -7 -7 -7 -7 -8
-5 -5 -5 -5 -5 -6 -6 -6 -6 -6 -6 -6 -6 -7 -7 -7 -7 -6 -6 -6 -6 -6 -6 -6 -6 -6 -6 -6 -6 -6 -6 -6 -6 -6 -6 -6 -6 -6 -6 -6 -6 -6 -6 -6 -6 -7 -7 -7 -7 -7 -7 -7 -7 -7 -7 -7 -7 -7 -7 -7 -7 -7 -8
-5 -5 -5 -5 -6 -6 -6 -6 -6 -6 -6 -7 -7 -7 -7 -7 -7 -7 -6 -6 -6 -6 -6 -6 -6 -6 -6 -6 -6 -6 -6 -6 -6 -6 -6 -6 -6 -6 -6 -6 -6 -6 -7 -7 -7 -7 -7 -7 -7 -7 -7 -7 -7 -7 -7 -7 -7 -7 -7 -7 -7 -7 -8
-6 -5 -5 -5 -6 -6 -6 -6 -6 -6 -7 -7 -7 -7 -7 -7 -7 -7 -7 -7 -6 -6 -6 -6 -6 -6 -6 -6 -6 -6 -6 -6 -6 -6 -6 -6 -6 -6 -6 -7 -7 -7 -7 -7 -7 -7 -7 -7 -7 -7 -7 -7 -7 -7 -7 -7 -8 -8 -8 -8 -7 -7 -7
-6 -5 -5 -6 -6 -6 -6 -6 -6 -6 -7 -7 -7 -7 -7 -7 -7 -7 -7 -7 -6 -6 -6 -6 -6 -6 -6 -6 -6 -6 -6 -6 -6 -6 -6 -6 -6 -6 -6 -7 -7 -7 -7 -7 -7 -7 -7 -7 -7 -7 -7 -7 -7 -7 -7 -7 -7 -8 -8 -8 -7 -7 -7
-7 -6 -5 -6 -6 -6 -6 -6 -6 -6 -6 -7 -7 -7 -7 -7 -7 -7 -7 -7 -7 -6 -6 -6 -6 -6 -6 -6 -6 -5 -5 -5 -5 -5 -6 -6 -6 -6 -6 -6 -6 -7 -7 -7 -7 -7 -7 -7 -7 -7 -7 -7 -7 -7 -7 -7 -7 -7 -7 -7 -7 -7 -8
-7 -7 -6 -6 -6 -6 -6 -6 -6 -6 -6 -6 -7 -7 -7 -7 -7 -7 -7 -7 -7 -7 -7 -6 -6 -6 -6 -6 -5 -5 -5 -5 -5 -5 -6 -6 -6 -6 -6 -6 -6 -7 -7 -7 -7 -7 -7 -7 -7 -7 -7 -7 -7 -7 -7 -7 -7 -7 -7 -7 -7 -7 -8
-6 -6 -6 -7 -6 -6 -6 -5 -6 -6 -5 -6 -6 -7 -7 -7 -7 -7 -7 -7 -7 -7 -7 -6 -6 -6 -6 -6 -6 -5 -5 -5 -5 -6 -6 -6 -6 -6 -6 -6 -7 -7 -7 -7 -7 -7 -7 -7 -7 -7 -7 -7 -7 -7 -7 -7 -7 -7 -7 -8 -7 -7 -8
-6 -6 -7 -7 -6 -6 -6 -5 -6 -6 -6 -6 -6 -7 -7 -7 -7 -7 -7 -7 -7 -7 -7 -7 -6 -6 -6 -6 -6 -6 -5 -6 -6 -6 -6 -6 -6 -6 -6 -7 -7 -7 -7 -7 -7 -7 -7 -7 -7 -7 -8 -8 -8 -7 -7 -7 -7 -7 -7 -8 -8 -7 -7
-6 -7 -7 -6 -6 -6 -6 -6 -6 -6 -6 -6 -6 -7 -7 -7 -7 -7 -7 -7 -7 -7 -7 -7 -6 -6 -6 -6 -6 -6 -6 -6 -6 -6 -6 -6 -7 -7 -7 -7 -7 -7 -7 -7 -7 -7 -7 -7 -7 -8 -8 -8 -8 -8 -8 -8 -8 -8 -8 -8 -8 -7 -7
-6 -7 -6 -6 -6 -6 -6 -6 -6 -6 -6 -6 -6 -7 -7 -7 -7 -7 -7 -7 -7 -7 -7 -7 -6 -6 -6 -6 -6 -6 -6 -6 -6 -6 -6 -7 -7 -7 -7 -7 -7 -7 -7 -8 -7 -7 -7 -7 -7 -8 -8 -8 -8 -8 -8 -8 -8 -8 -8 -8 -8 -8 -7
-7 -7 -6 -6 -6 -7 -7 -7 -6 -6 -6 -6 -6 -7 -7 -7 -7 -7 -7 -7 -7 -7 -7 -7 -6 -6 -7 -7 -6 -6 -7 -7 -7 -7 -7 -7 -7 -7 -7 -7 -7 -7 -7 -8 -8 -7 -7 -7 -7 -8 -8 -8 -8 -8 -8 -9 -9 -9 -9 -8 -8 -8 -8
-7 -6 -6 -5 -6 -7 -7 -7 -6 -6 -6 -6 -6 -6 -7 -7 -7 -7 -7 -7 -7 -7 -7 -7 -7 -6 -7 -7 -7 -7 -7 -7 -7 -7 -7 -7 -7 -7 -7 -7 -7 -7 -7 -7 -8 -8 -7 -7 -7 -8 -8 -8 -8 -8 -8 -8 -9 -9 -9 -9 -8 -8 -8
-7 -7 -6 -6 -6 -7 -7 -6 -6 -6 -6 -6 -6 -6 -7 -7 -7 -7 -7 -7 -7 -7 -7 -7 -7 -7 -7 -7 -7 -7 -7 -7 -7 -7 -7 -7 -7 -7 -7 -7 -7 -7 -7 -7 -8 -8 -8 -7 -7 -8 -8 -8 -8 -8 -8 -8 -8 -9 -9 -9 -8 -8 -8
-6 -6 -6 -6 -6 -7 -7 -7 -6 -6 -6 -6 -6 -6 -7 -7 -7 -7 -7 -7 -7 -7 -7 -7 -7 -7 -7 -7 -7 -7 -7 -7 -7 -7 -7 -7 -7 -7 -7 -8 -8 -8 -8 -8 -8 -8 -8 -8 -8 -8 -8 -8 -8 -8 -8 -8 -8 -9 -9 -8 -8 -8 -8
-6 -6 -6 -6 -6 -6 -6 -6 -6 -6 -6 -6 -6 -6 -6 -7 -7 -7 -7 -7 -7 -7 -7 -7 -7 -7 -7 -7 -7 -7 -7 -7 -7 -7 -7 -7 -7 -7 -8 -8 -8 -8 -8 -8 -8 -8 -8 -8 -8 -8 -8 -8 -8 -8 -8 -8 -8 -9 -9 -8 -8 -8 -8
-7 -6 -6 -6 -7 -6 -6 -6 -6 -6 -6 -6 -6 -6 -6 -7 -7 -7 -7 -7 -7 -7 -7 -7 -7 -7 -7 -7 -7 -7 -7 -8 -8 -7 -7 -7 -7 -8 -8 -8 -8 -8 -8 -8 -8 -8 -8 -8 -8 -8 -8 -8 -8 -9 -9 -9 -9 -9 -9 -9 -8 -8 -8
-7 -6 -6 -6 -6 -6 -6 -6 -6 -6 -6 -6 -6 -6 -6 -7 -7 -7 -7 -7 -7 -7 -7 -7 -7 -7 -7 -7 -7 -7 -8 -8 -7 -7 -7 -7 -8 -8 -8 -8 -8 -8 -8 -8 -8 -8 -8 -8 -9 -9 -9 -9 -9 -9 -9 -9 -9 -9 -9 -9 -8 -8 -8
-7 -6 -7 -7 -6 -6 -6 -7 -7 -7 -7 -6 -6 -6 -6 -7 -7 -7 -7 -7 -7 -7 -7 -7 -7 -7 -7 -7 -7 -8 -7 -7 -7 -7 -7 -8 -8 -8 -8 -8 -8 -8 -8 -8 -8 -8 -8 -9 -9 -9 -9 -9 -9 -9 -9 -9 -9 -9 -9 -9 -8 -8 -8
-7 -7 -7 -7 -7 -6 -6 -6 -7 -7 -7 -7 -6 -6 -6 -7 -7 -7 -7 -7 -7 -7 -7 -7 -7 -7 -7 -7 -7 -7 -7 -7 -7 -7 -7 -8 -8 -8 -8 -8 -8 -8 -8 -8 -9 -9 -9 -9 -9 -9 -9 -9 -9 -9 -9 -9 -9 -9 -9 -9 -8 -8 -8
-7 -7 -6 -7 -7 -6 -6 -6 -6 -7 -7 -7 -7 -6 -6 -7 -6 -7 -7 -7 -7 -7 -7 -7 -7 -7 -7 -7 -7 -7 -7 -7 -7 -7 -7 -8 -8 -8 -8 -8 -8 -9 -9 -9 -9 -9 -9 -9 -9 -9 -9 -9 -9 -9 -9 -9 -9 -9 -9 -9 -8 -9 -9
-7 -7 -7 -7 -7 -7 -6 -6 -6 -6 -7 -7 -7 -7 -7 -7 -6 -6 -7 -7 -7 -7 -7 -7 -7 -7 -7 -7 -7 -7 -7 -7 -7 -7 -8 -8 -8 -8 -8 -8 -8 -9 -9 -9 -9 -9 -9 -9 -9 -9 -9 -9 -9 -9 -9 -9 -9 -9 -9 -9 -9 -9 -9
-7 -7 -7 -7 -7 -7 -7 -6 -5 -6 -7 -7 -7 -7 -7 -7 -6 -6 -7 -7 -7 -7 -7 -7 -7 -7 -7 -7 -7 -7 -8 -8 -8 -8 -8 -8 -8 -8 -8 -8 -8 -9 -9 -9 -9 -9 -9 -9 -9 -9 -9 -9 -10 -9 -9 -9 -9 -9 -9 -9 -9 -9 -9
-7 -7 -7 -7 -7 -7 -7 -6 -5 -6 -6 -7 -7 -7 -7 -7 -6 -6 -7 -7 -7 -7 -7 -7 -7 -7 -7 -8 -7 -7 -8 -8 -8 -8 -8 -8 -8 -8 -8 -8 -8 -9 -9 -9 -9 -9 -9 -9 -9 -9 -9 -9 -10 -9 -9 -9 -9 -9 -9 -9 -9 -9 -9
-8 -7 -6 -6 -7 -7 -6 -6 -5 -5 -6 -7 -7 -7 -7 -7 -6 -6 -7 -7 -7 -7 -7 -7 -7 -7 -8 -8 -8 -8 -8 -8 -8 -8 -8 -8 -8 -8 -8 -8 -8 -9 -9 -9 -9 -9 -9 -9 -10 -9 -9 -10 -10 -9 -9 -9 -9 -9 -9 -10 -10 -10 -9
-8 -8 -7 -7 -7 -7 -6 -5 -5 -5 -6 -7 -7 -7 -7 -6 -6 -6 -7 -7 -7 -7 -7 -7 -7 -8 -8 -8 -8 -8 -8 -8 -8 -8 -8 -8 -8 -8 -8 -8 -8 -9 -9 -9 -9 -9 -9 -9 -9 -9 -9 -9 -9 -9 -9 -9 -9 -9 -10 -10 -10 -10 -9
-8 -8 -8 -8 -8 -7 -6 -6 -6 -6 -6 -7 -7 -7 -7 -6 -6 -6 -7 -7 -7 -7 -7 -7 -7 -8 -8 -8 -8 -8 -8 -8 -8 -8 -8 -8 -8 -8 -9 -8 -8 -9 -9 -9 -9 -9 -9 -9 -9 -9 -9 -9 -9 -9 -9 -9 -9 -10 -10 -10 -10 -10 -10
-8 -8 -8 -8 -7 -7 -6 -6 -7 -7 -7 -7 -7 -7 -7 -6 -6 -7 -7 -7 -7 -7 -7 -7 -7 -8 -8 -8 -8 -8 -8 -8 -8 -8 -8 -8 -8 -9 -9 -8 -8 -9 -9 -9 -9 -9 -9 -9 -9 -9 -9 -9 -9 -9 -9 -9 -9 -10 -10 -10 -10 -10 -10
-8 -8 -9 -8 -8 -7 -6 -6 -7 -7 -7 -7 -7 -7 -7 -7 -7 -7 -7 -7 -7 -7 -7 -7 -8 -8 -8 -8 -8 -8 -8 -8 -8 -8 -8 -8 -8 -8 -8 -8 -9 -9 -9 -9 -9 -9 -9 -9 -9 -9 -9 -9 -9 -9 -9 -9 -10 -10 -10 -10 -10 -10 -10
-8 -9 -9 -9 -8 -7 -6 -7 -7 -7 -7 -7 -7 -7 -7 -7 -7 -7 -7 -7 -7 -7 -7 -8 -8 -8 -8 -8 -8 -8 -8 -8 -8 -8 -8 -8 -8 -8 -8 -9 -9 -9 -9 -9 -9 -9 -9 -9 -9 -9 -9 -9 -9 -9 -9 -9 -10 -10 -10 -10 -10 -10 -10
-9 -9 -9 -8 -8 -7 -6 -7 -7 -7 -7 -8 -7 -7 -7 -7 -7 -7 -7 -7 -7 -7 -7 -8 -8 -8 -8 -8 -8 -8 -8 -8 -8 -8 -8 -8 -8 -8 -9 -9 -9 -9 -9 -9 -9 -9 -9 -9 -9 -9 -9 -9 -9 -9 -9 -10 -10 -10 -10 -10 -10 -10 -10
-8 -8 -8 -8 -8 -7 -7 -7 -7 -8 -8 -8 -7 -7 -7 -7 -7 -7 -7 -7 -7 -8 -8 -8 -8 -8 -8 -8 -8 -8 -8 -8 -8 -8 -8 -8 -8 -8 -9 -9 -9 -9 -9 -9 -9 -9 -9 -9 -9 -9 -9 -9 -9 -9 -10 -10 -10 -10 -10 -10 -10 -10 -10
-8 -7 -8 -8 -8 -8 -8 -8 -8 -8 -8 -8 -8 -8 -7 -7 -8 -7 -7 -8 -8 -8 -8 -8 -8 -8 -8 -8 -8 -8 -8 -8 -8 -8 -9 -8 -8 -8 -9 -9 -9 -9 -9 -9 -9 -9 -9 -9 -9 -9 -9 -9 -10 -10 -10 -10 -10 -10 -10 -10 -10 -10 -10
-8 -7 -7 -8 -8 -8 -8 -8 -8 -8 -8 -8 -8 -8 -8 -8 -8 -7 -7 -8 -7 -7 -8 -8 -8 -8 -8 -8 -8 -8 -8 -8 -8 -9 -9 -8 -8 -8 -9 -9 -9 -9 -9 -9 -9 -9 -9 -9 -9 -9 -9 -10 -10 -10 -10 -10 -10 -10 -10 -10 -10 -10 -10
-8 -8 -8 -8 -7 -7 -8 -8 -8 -8 -8 -8 -8 -8 -7 -7 -7 -7 -7 -7 -7 -7 -8 -8 -8 -8 -8 -8 -8 -8 -8 -8 -8 -9 -9 -9 -9 -9 -9 -9 -9 -9 -9 -9 -9 -9 -9 -9 -9 -9 -10 -10 -10 -10 -10 -10 -10 -10 -10 -10 -10 -10 -11
-8 -8 -8 -8 -7 -7 -7 -8 -8 -8 -8 -8 -8 -8 -8 -8 -8 -8 -7 -7 -7 -8 -8 -8 -8 -8 -8 -8 -8 -8 -8 -8 -9 -9 -9 -9 -9 -9 -9 -9 -9 -9 -10 -9 -9 -9 -10 -10 -10 -10 -10 -10 -10 -10 -10 -10 -10 -10 -10 -10 -10 -11 -11
-8 -8 -8 -8 -8 -7 -8 -8 -8 -8 -8 -8 -8 -8 -8 -8 -8 -8 -8 -8 -8 -8 -8 -8 -8 -8 -8 -8 -8 -8 -8 -9 -9 -9 -9 -9 -9 -9 -9 -9 -9 -10 -10 -10 -10 -10 -10 -10 -10 -10 -10 -10 -10 -10 -10 -10 -10 -10 -10 -10 -11 -11 -11
Height
5888 5889 5891 5892 5894 5896 5897 5898 5899 5899 5898 5897 5897 5898 5899 5901 5902 5902 5903 5903 5904 5904 5905 5906 5907 5907 5908 5909 5909 5910 5910 5910 5911 5911 5912 5913 5913 5913 5913 5913 5913 5913 5914 5914 5914 5913 5913 5912 5911 5909 5908 5907 5906 5904 5903 5901 5900 5899 5897 5896 5894 5893 5891
5885 5887 5889 5890 5892 5894 5894 5895 5896 5897 5897 5896 5896 5896 5898 5899 5900 5900 5900 5901 5901 5902 5902 5903 5904 5905 5905 5906 5907 5907 5908 5908 5909 5909 5910 5911 5911 5911 5911 5911 5911 5911 5912 5912 5912 5912 5910 5909 5909 5907 5906 5905 5903 5902 5901 5899 5898 5896 5895 5894 5892 5890 5889
5881 5884 5886 5887 5889 5891 5891 5892 5893 5895 5895 5894 5894 5894 5896 5897 5898 5898 5899 5899 5899 5899 5900 5901 5901 5902 5902 5903 5904 5905 5905 5906 5907 5907 5908 5909 5909 5909 5909 5909 5909 5910 5910 5911 5911 5910 5908 5907 5906 5905 5904 5903 5901 5900 5899 5897 5896 5895 5894 5892 5890 5888 5887
5878 5881 5884 5886 5887 5888 5888 5889 5891 5892 5893 5893 5892 5893 5894 5896 5896 5897 5897 5897 5897 5897 5898 5898 5899 5899 5900 5901 5901 5902 5903 5904 5904 5905 5905 5906 5907 5907 5907 5907 5907 5908 5909 5909 5909 5908 5906 5905 5904 5903 5902 5901 5899 5898 5897 5896 5894 5893 5892 5890 5888 5886 5884
5874 5878 5882 5885 5886 5886 5887 5888 5888 5890 5890 5890 5890 5891 5893 5894 5895 5896 5896 5896 5896 5896 5896 5896 5896 5897 5898 5898 5899 5899 5900 5901 5902 5902 5903 5904 5904 5905 5905 5905 5906 5907 5907 5907 5907 5906 5904 5903 5902 5901 5899 5898 5897 5896 5894 5893 5892 5891 5889 5887 5885 5883 5882
5871 5874 5880 5883 5885 5886 5886 5886 5886 5887 5887 5887 5888 5889 5891 5892 5893 5894 5894 5894 5894 5894 5894 5895 5895 5895 5896 5896 5896 5897 5898 5898 5899 5900 5901 5901 5902 5903 5903 5904 5904 5905 5905 5905 5904 5903 5902 5901 5900 5899 5897 5896 5895 5894 5892 5891 5890 5888 5886 5884 5882 5880 5879
5872 5873 5878 5881 5882 5882 5883 5884 5884 5884 5884 5884 5885 5887 5889 5890 5892 5892 5893 5893 5893 5893 5893 5893 5893 5893 5894 5894 5894 5895 5895 5896 5897 5898 5898 5899 5900 5901 5901 5902 5903 5903 5903 5902 5901 5900 5899 5899 5898 5897 5895 5894 5893 5892 5890 5889 5887 5886 5884 5882 5880 5878 5876
5872 5873 5877 5879 5879 5878 5879 5881 5882 5882 5881 5880 5882 5885 5886 5888 5890 5891 5891 5891 5891 5891 5891 5891 5891 5891 5892 5892 5892 5893 5893 5894 5895 5895 5896 5897 5898 5899 5900 5900 5901 5901 5901 5900 5899 5898 5897 5896 5895 5894 5893 5892 5891 5890 5888 5886 5885 5883 5881 5879 5877 5875 5874
5869 5871 5875 5875 5875 5875 5877 5879 5881 5882 5881 5879 5879 5882 5884 5886 5887 5889 5890 5890 5889 5889 5889 5889 5890 5890 5890 5890 5890 5891 5891 5892 5893 5893 5894 5896 5897 5898 5898 5898 5898 5899 5898 5898 5897 5896 5895 5894 5893 5892 5891 5890 5888 5887 5886 5884 5882 5881 5879 5877 5875 5873 5871
5867 5868 5870 5869 5870 5872 5874 5876 5877 5878 5878 5877 5877 5879 5881 5883 5885 5887 5888 5888 5888 5888 5887 5887 5888 5888 5888 5888 5888 5889 5890 5890 5891 5892 5893 5894 5895 5896 5896 5896 5896 5896 5896 5895 5894 5894 5893 5892 5891 5889 5888 5887 5886 5885 5883 5881 5880 5878 5877 5875 5872 5871 5869
5864 5864 5864 5864 5866 5869 5870 5871 5872 5873 5874 5874 5875 5876 5879 5881 5882 5884 5885 5886 5886 5886 5885 5885 5886 5886 5886 5886 5887 5887 5888 5888 5889 5890 5891 5892 5893 5894 5894 5893 5894 5894 5893 5892 5891 5891 5890 5889 5888 5887 5886 5884 5883 5882 5880 5879 5877 5875 5873 5872 5870 5868 5866
5861 5861 5861 5862 5864 5865 5866 5867 5868 5869 5870 5871 5873 5874 5876 5878 5879 5881 5882 5883 5883 5883 5883 5883 5884 5884 5884 5884 5885 5886 5886 5886 5887 5888 5889 5890 5891 5892 5891 5891 5891 5892 5891 5889 5888 5888 5888 5886 5885 5884 5883 5881 5880 5878 5877 5875 5873 5872 5870 5868 5867 5865 5863
5858 5858 5858 5859 5861 5862 5862 5863 5864 5866 5867 5869 5870 5872 5873 5875 5877 5878 5879 5880 5881 5881 5881 5881 5882 5882 5882 5882 5883 5884 5884 5884 5885 5886 5887 5888 5889 5889 5889 5888 5889 5889 5888 5887 5885 5885 5885 5884 5883 5882 5881 5879 5877 5875 5874 5872 5870 5868 5866 5864 5863 5861 5860
5855 5854 5854 5856 5859 5859 5859 5860 5861 5863 5864 5865 5867 5869 5870 5872 5873 5875 5876 5877 5878 5878 5879 5879 5879 5880 5880 5880 5881 5881 5882 5882 5883 5884 5885 5886 5887 5887 5886 5886 5886 5886 5885 5885 5883 5882 5882 5882 5881 5880 5879 5877 5875 5873 5871 5869 5867 5864 5862 5860 5859 5858 5857
5851 5851 5851 5853 5855 5856 5857 5857 5858 5859 5860 5862 5864 5865 5867 5869 5870 5871 5873 5874 5874 5875 5876 5877 5877 5877 5878 5878 5878 5879 5879 5880 5881 5882 5884 5884 5884 5884 5884 5883 5883 5883 5882 5882 5881 5880 5879 5879 5878 5877 5876 5874 5872 5869 5867 5865 5862 5860 5857 5856 5855 5854 5853
5845 5846 5847 5848 5851 5853 5854 5854 5855 5856 5858 5859 5861 5862 5864 5865 5867 5868 5870 5871 5872 5872 5873 5875 5874 5875 5875 5876 5876 5876 5877 5878 5879 5880 5881 5882 5882 5882 5881 5881 5880 5880 5879 5879 5879 5877 5876 5875 5874 5874 5872 5871 5868 5865 5863 5860 5858 5855 5853 5852 5852 5850 5849
5840 5841 5842 5845 5847 5848 5849 5850 5852 5853 5855 5856 5858 5859 5861 5862 5864 5865 5866 5868 5869 5869 5870 5872 5872 5872 5873 5873 5873 5874 5875 5876 5877 5878 5879 5880 5880 5879 5879 5878 5877 5877 5876 5875 5875 5874 5872 5871 5870 5869 5868 5867 5865 5862 5859 5857 5854 5852 5849 5848 5847 5846 5845
5837 5837 5839 5841 5843 5844 5846 5847 5849 5851 5852 5853 5854 5856 5858 5859 5860 5862 5863 5865 5866 5866 5867 5868 5869 5869 5870 5871 5871 5872 5873 5874 5875 5876 5877 5877 5877 5876 5876 5875 5874 5873 5872 5872 5871 5870 5869 5868 5866 5864 5862 5861 5861 5859 5856 5853 5851 5849 5846 5844 5843 5842 5841
5833 5835 5835 5835 5838 5841 5842 5844 5846 5848 5849 5850 5851 5853 5855 5856 5857 5858 5860 5862 5863 5863 5864 5865 5866 5867 5867 5868 5869 5870 5871 5872 5873 5873 5874 5874 5873 5873 5873 5872 5871 5870 5870 5869 5868 5867 5866 5864 5862 5860 5858 5856 5854 5854 5853 5850 5848 5846 5843 5840 5839 5838 5836
5828 5831 5831 5830 5832 5835 5837 5840 5842 5843 5845 5846 5848 5850 5852 5852 5853 5855 5856 5858 5859 5860 5860 5862 5863 5864 5864 5865 5867 5868 5869 5869 5870 5871 5871 5870 5870 5870 5869 5869 5868 5868 5867 5866 5864 5863 5862 5861 5858 5856 5854 5852 5850 5848 5847 5846 5845 5842 5839 5837 5836 5834 5833
5823 5825 5827 5827 5827 5828 5832 5837 5838 5839 5842 5843 5844 5846 5848 5848 5850 5851 5852 5854 5856 5856 5857 5859 5861 5861 5862 5863 5864 5865 5866 5867 5867 5867 5867 5867 5867 5867 5866 5865 5865 5864 5863 5862 5861 5860 5859 5857 5855 5853 5851 5849 5846 5844 5842 5841 5841 5839 5836 5834 5833 5831 5829
5817 5820 5821 5822 5823 5824 5827 5832 5835 5837 5838 5839 5840 5842 5844 5845 5846 5847 5848 5850 5852 5853 5854 5856 5858 5858 5859 5860 5861 5862 5862 5863 5863 5864 5864 5864 5863 5863 5863 5862 5861 5860 5859 5858 5856 5856 5855 5853 5851 5849 5846 5844 5842 5839 5837 5836 5836 5835 5832 5830 5829 5827 5826
5811 5813 5815 5816 5819 5820 5821 5825 5830 5833 5835 5835 5836 5838 5841 5841 5841 5843 5845 5846 5848 5849 5850 5852 5854 5855 5856 5857 5857 5858 5858 5859 5859 5859 5859 5859 5859 5860 5859 5858 5857 5856 5855 5854 5852 5851 5850 5848 5846 5845 5842 5840 5838 5835 5833 5832 5831 5831 5829 5827 5825 5823 5822
5805 5806 5808 5810 5812 5815 5816 5818 5823 5827 5830 5831 5832 5833 5835 5837 5837 5838 5840 5842 5844 5845 5847 5849 5850 5851 5852 5853 5854 5854 5854 5854 5855 5855 5855 5855 5855 5855 5855 5854 5853 5852 5851 5850 5848 5847 5846 5843 5842 5840 5838 5835 5833 5831 5829 5828 5827 5827 5826 5824 5822 5820 5819
5799 5800 5802 5803 5806 5810 5811 5812 5815 5820 5824 5825 5827 5828 5830 5832 5833 5833 5836 5838 5840 5841 5843 5845 5846 5847 5848 5849 5850 5850 5850 5850 5851 5851 5851 5851 5851 5851 5851 5850 5849 5848 5847 5845 5843 5842 5841 5839 5837 5836 5834 5831 5829 5826 5825 5824 5823 5822 5821 5819 5818 5816 5815
5790 5793 5794 5796 5800 5803 5803 5804 5808 5814 5818 5819 5821 5823 5825 5827 5827 5828 5831 5833 5835 5837 5839 5840 5842 5843 5844 5845 5846 5846 5847 5846 5846 5846 5847 5847 5847 5847 5847 5845 5844 5843 5842 5841 5839 5837 5836 5835 5833 5831 5829 5827 5824 5822 5821 5820 5819 5817 5816 5814 5813 5811 5810
5782 5785 5787 5789 5792 5795 5796 5798 5803 5808 5811 5813 5816 5818 5819 5821 5822 5823 5825 5828 5830 5832 5834 5835 5837 5839 5839 5841 5841 5842 5842 5842 5842 5842 5842 5843 5843 5842 5842 5841 5839 5838 5837 5836 5834 5832 5831 5829 5828 5826 5824 5822 5820 5818 5816 5815 5814 5812 5810 5809 5807 5806 5805
5776 5778 5780 5781 5784 5787 5789 5793 5797 5801 5804 5807 5810 5812 5814 5815 5817 5818 5820 5823 5825 5827 5829 5831 5833 5834 5835 5836 5837 5837 5837 5838 5837 5838 5838 5838 5837 5837 5836 5835 5835 5833 5832 5831 5829 5827 5826 5824 5822 5820 5819 5817 5815 5813 5812 5810 5810 5808 5806 5804 5802 5801 5799
5767 5771 5773 5774 5776 5780 5784 5788 5792 5795 5798 5800 5803 5806 5808 5810 5811 5813 5815 5818 5820 5822 5824 5826 5828 5829 5830 5831 5831 5832 5832 5833 5833 5833 5833 5833 5832 5831 5830 5830 5829 5828 5827 5825 5824 5822 5820 5819 5817 5815 5813 5812 5810 5809 5807 5806 5804 5803 5801 5799 5797 5796 5794
5761 5763 5766 5768 5770 5773 5777 5782 5785 5788 5791 5794 5796 5799 5801 5803 5806 5808 5810 5812 5814 5817 5819 5821 5823 5824 5824 5825 5826 5827 5827 5828 5828 5828 5828 5827 5826 5825 5825 5825 5824 5823 5821 5820 5818 5817 5815 5813 5812 5810 5808 5807 5805 5804 5802 5801 5799 5797 5796 5794 5792 5791 5789
5758 5759 5760 5762 5765 5766 5769 5773 5777 5780 5783 5786 5789 5792 5795 5798 5801 5803 5805 5807 5810 5813 5815 5816 5817 5818 5819 5820 5821 5822 5822 5822 5822 5823 5822 5821 5820 5819 5819 5819 5819 5817 5816 5814 5813 5811 5810 5808 5806 5804 5803 5802 5800 5799 5797 5796 5794 5792 5790 5788 5787 5785 5784
5751 5751 5753 5756 5759 5760 5761 5764 5768 5771 5775 5778 5782 5786 5790 5793 5795 5798 5801 5804 5806 5808 5810 5810 5811 5812 5814 5815 5816 5816 5816 5816 5816 5816 5815 5814 5814 5814 5814 5813 5812 5811 5810 5809 5808 5806 5804 5802 5800 5799 5797 5796 5795 5793 5792 5790 5789 5787 5785 5783 5782 5780 5779
5743 5742 5743 5747 5752 5754 5754 5757 5760 5763 5768 5772 5776 5780 5784 5787 5791 5794 5797 5799 5801 5802 5803 5804 5806 5807 5808 5809 5810 5810 5810 5810 5810 5810 5810 5809 5810 5809 5808 5807 5805 5805 5804 5804 5802 5801 5799 5797 5795 5794 5792 5790 5789 5788 5786 5784 5783 5782 5780 5778 5777 5776 5774
5738 5735 5735 5738 5741 5744 5747 5750 5752 5755 5760 5765 5770 5775 5779 5782 5785 5788 5790 5792 5794 5796 5798 5799 5801 5802 5803 5804 5804 5804 5804 5804 5804 5805 5805 5805 5805 5804 5803 5801 5800 5799 5799 5798 5797 5795 5793 5792 5790 5789 5787 5785 5784 5782 5781 5779 5777 5776 5775 5773 5771 5770 5768
5733 5733 5734 5734 5733 5734 5737 5741 5744 5749 5755 5760 5765 5769 5773 5776 5779 5781 5784 5786 5789 5791 5793 5794 5796 5797 5798 5798 5798 5799 5799 5800 5800 5800 5800 5799 5798 5798 5797 5796 5795 5794 5794 5792 5791 5790 5788 5786 5785 5783 5782 5780 5778 5777 5776 5774 5772 5771 5769 5767 5765 5763 5761
5727 5728 5731 5733 5733 5733 5733 5734 5739 5745 5751 5756 5760 5764 5767 5770 5773 5776 5779 5782 5784 5786 5787 5789 5790 5791 5791 5792 5793 5793 5793 5794 5794 5794 5794 5793 5792 5792 5791 5790 5789 5788 5787 5786 5785 5784 5782 5781 5780 5778 5776 5774 5773 5772 5770 5769 5767 5765 5763 5762 5760 5758 5756
5720 5723 5727 5730 5733 5735 5734 5734 5738 5743 5748 5752 5756 5760 5763 5766 5769 5772 5774 5777 5779 5780 5781 5783 5784 5785 5786 5787 5786 5785 5786 5788 5789 5789 5788 5787 5786 5785 5784 5784 5783 5782 5780 5779 5779 5778 5777 5775 5774 5773 5771 5769 5767 5765 5764 5764 5762 5760 5757 5755 5754 5752 5750
5716 5719 5722 5725 5728 5730 5731 5733 5737 5741 5745 5749 5752 5756 5759 5762 5764 5767 5769 5770 5772 5774 5775 5776 5778 5779 5780 5780 5778 5778 5780 5782 5783 5782 5782 5781 5780 5779 5778 5777 5776 5775 5774 5773 5773 5772 5771 5769 5768 5767 5766 5764 5762 5760 5758 5758 5757 5755 5752 5749 5747 5745 5744
Wind_Speed
21 22 23 23 22 18 15 15 17 15 12 8 7 9 12 14 16 18 19 20 21 21 21 20 20 21 20 20 20 19 19 18 18 18 17 16 16 16 16 16 15 15 15 15 16 16 16 16 17 18 19 21 22 23 23 24 24 26 27 28 29 31 33
21 20 20 22 22 18 15 15 16 14 11 8 6 6 8 10 11 14 16 18 20 21 21 21 21 21 21 21 20 20 19 19 19 19 18 17 17 17 16 16 16 16 16 16 17 17 17 17 17 18 20 21 22 23 24 25 26 27 28 29 30 32 33
22 19 17 19 19 18 18 16 15 13 11 8 5 4 5 7 9 10 12 14 16 17 19 20 20 21 22 22 21 21 21 21 20 20 20 19 18 17 17 17 17 17 16 16 16 16 17 18 19 20 21 23 23 23 23 24 25 27 27 28 31 32 33
23 20 18 19 19 20 21 20 17 14 11 7 5 5 5 7 8 8 9 10 12 13 15 17 18 20 21 21 22 22 22 22 22 22 22 20 18 18 17 17 17 17 17 16 15 16 18 19 20 22 22 24 25 24 24 25 26 27 28 29 31 32 33
25 23 19 19 19 21 22 21 18 15 11 9 7 7 7 8 9 8 8 9 10 12 13 15 17 17 19 20 21 21 22 22 22 23 22 20 18 18 17 17 17 17 16 16 16 17 18 19 20 22 23 24 26 26 27 27 26 27 28 30 31 33 34
27 24 17 17 19 23 24 21 19 16 14 12 10 10 10 10 9 8 8 8 9 11 12 13 14 15 16 17 18 19 19 20 21 21 20 18 18 17 16 16 16 16 16 16 17 17 18 19 19 21 23 24 26 27 28 28 28 29 30 31 32 33 33
30 31 23 21 22 24 27 24 22 20 18 15 13 13 13 11 9 8 9 9 9 10 11 12 13 14 15 15 16 16 16 16 17 17 17 16 15 15 16 16 15 15 15 16 16 17 17 19 19 21 23 24 25 26 28 30 31 32 32 31 31 32 32
33 35 29 27 27 28 29 26 24 22 20 17 15 13 13 12 10 8 9 10 10 10 10 12 13 13 14 14 14 13 13 13 13 13 13 13 13 14 15 16 15 15 16 17 17 16 18 19 20 21 22 24 25 26 27 30 31 32 32 31 30 31 29
32 31 28 29 30 30 29 26 24 25 22 17 14 14 14 14 12 9 10 12 12 10 11 12 13 13 14 14 13 13 12 12 12 12 12 12 13 14 15 16 16 16 17 18 17 17 18 19 21 22 23 24 26 27 28 30 31 31 31 31 30 29 26
26 26 29 33 31 28 28 27 26 27 25 18 13 14 15 16 14 11 11 13 13 12 12 13 13 12 12 13 13 13 12 11 12 12 12 13 13 14 14 16 16 16 17 17 17 18 19 21 23 24 25 26 28 29 29 30 31 30 31 31 30 28 25
29 31 34 35 29 25 27 27 26 27 26 19 14 13 14 16 17 14 13 14 14 15 14 13 13 11 11 13 13 12 12 12 12 13 13 13 13 13 14 14 14 14 16 18 18 19 21 23 25 26 27 29 30 31 31 32 32 30 30 31 30 27 27
34 36 37 33 26 25 28 28 28 27 25 20 16 14 14 16 19 17 15 15 15 16 15 14 13 12 12 14 13 12 12 13 13 13 14 13 12 12 13 13 14 14 16 19 21 21 22 24 26 27 29 31 33 35 34 35 35 32 31 31 30 28 28
34 35 38 35 27 27 30 31 31 29 26 23 19 17 16 17 20 19 17 16 17 17 16 15 14 13 13 14 13 13 13 14 14 14 14 13 11 11 13 15 15 15 17 19 22 23 23 24 26 28 29 32 35 37 38 38 38 35 32 32 32 30 30
36 37 38 34 30 31 33 34 33 31 29 26 23 20 18 19 21 20 18 18 18 18 17 17 15 13 14 15 14 13 15 16 15 14 12 11 11 12 14 16 17 17 17 18 20 23 24 25 26 28 30 34 37 39 39 40 40 37 34 33 33 33 32
42 43 40 33 31 33 35 36 36 35 33 29 25 24 22 21 22 21 19 18 19 19 18 18 17 15 14 15 15 14 16 16 15 13 12 12 12 13 14 15 16 17 17 18 20 23 25 26 28 30 33 36 39 40 41 40 40 38 36 35 34 34 34
40 42 43 39 35 35 36 39 40 39 36 33 29 26 25 24 23 21 20 19 19 20 19 19 18 16 14 15 16 16 17 16 15 13 13 13 13 13 14 15 16 18 20 21 23 26 28 30 32 34 36 39 41 43 42 41 40 39 38 36 34 33 33
37 36 38 37 36 37 40 42 43 41 38 36 33 29 27 26 25 23 21 20 20 21 21 19 18 17 16 16 17 17 17 17 16 15 15 15 14 14 15 16 18 20 23 25 27 29 31 33 35 37 39 41 42 43 43 41 40 39 38 36 34 32 32
38 36 34 35 36 38 41 42 43 42 40 38 37 33 29 28 27 25 23 21 21 22 22 21 19 18 18 18 18 18 18 18 17 16 16 16 15 16 18 19 22 24 26 28 30 32 33 35 38 40 42 43 43 43 42 40 39 37 37 36 34 32 33
39 38 38 39 38 38 41 42 43 43 42 41 39 35 31 30 28 25 23 22 22 23 24 22 20 19 19 19 18 18 18 19 18 17 16 17 19 20 22 23 25 27 28 31 33 34 36 38 41 43 45 46 47 45 42 39 37 36 37 37 35 33 34
38 39 42 44 41 37 39 41 43 45 44 42 40 36 34 33 30 26 25 25 24 24 25 23 20 19 20 20 20 20 20 20 18 17 18 19 21 23 24 26 27 29 30 32 35 36 37 39 42 44 45 47 49 48 44 39 36 36 37 37 35 34 33
35 37 41 44 44 41 37 37 40 43 44 43 42 38 37 36 32 28 27 27 25 25 26 23 19 18 19 20 20 20 20 20 19 19 20 21 23 24 26 27 29 31 32 34 36 38 38 40 43 44 45 47 49 49 45 40 37 36 37 37 34 33 32
43 44 45 45 46 45 42 37 34 36 40 44 44 41 39 39 36 31 28 28 27 27 28 25 20 20 20 20 20 20 21 21 22 23 23 24 25 26 27 29 31 32 34 36 38 39 41 43 44 45 47 48 49 48 45 41 38 36 37 38 36 34 33
53 53 55 54 52 50 50 47 40 35 38 43 44 42 42 43 40 34 29 29 29 30 30 26 23 22 21 21 21 22 23 24 25 26 28 29 29 29 29 31 32 34 36 38 40 41 43 45 45 47 49 50 49 48 45 42 40 38 38 40 39 37 35
59 59 60 60 59 57 56 55 50 43 41 43 44 43 44 47 44 37 31 31 32 32 30 28 26 25 23 22 24 25 26 28 28 30 32 33 33 33 33 33 35 37 38 40 42 43 45 46 47 48 50 51 50 48 44 42 40 39 39 40 39 37 35
54 58 59 59 57 54 54 56 53 47 44 44 44 44 45 48 47 40 33 32 33 33 31 29 28 27 26 26 27 28 30 32 33 34 34 35 37 37 37 37 38 40 40 42 43 44 46 48 49 49 51 52 51 47 44 42 41 40 40 39 37 36 35
40 48 54 54 48 45 51 57 53 46 44 43 43 44 46 48 49 43 35 34 35 34 32 32 31 30 30 30 30 31 34 36 37 37 37 38 40 40 40 41 42 42 43 43 44 46 48 50 50 50 52 52 51 48 44 42 42 41 40 37 36 35 34
36 41 47 47 41 41 50 56 49 43 44 44 44 46 49 50 49 43 37 36 36 35 34 34 33 33 34 34 35 36 37 39 40 41 40 41 43 43 43 44 45 45 45 45 45 47 49 50 50 51 51 50 50 48 45 43 43 41 38 36 35 34 35
37 39 41 42 41 44 49 48 41 39 44 45 46 49 50 50 48 43 39 38 37 37 36 36 34 35 37 37 39 40 41 42 44 44 43 45 46 46 46 46 46 46 47 47 47 48 49 50 50 50 49 49 48 47 45 44 42 39 36 35 35 35 36
40 42 43 43 44 47 47 42 36 38 44 47 49 50 50 49 46 43 40 39 39 39 38 36 36 37 39 40 42 43 44 45 46 46 47 49 50 51 51 50 48 48 48 48 47 47 48 49 50 50 49 49 48 46 45 44 41 38 36 36 37 38 37
41 44 46 44 42 43 43 40 39 43 47 49 51 51 49 47 45 43 41 41 41 40 39 38 38 40 42 43 43 44 46 47 47 48 50 52 54 56 56 53 49 47 47 48 47 47 48 49 49 50 49 49 48 46 45 43 41 39 38 39 39 38 36
37 42 44 42 41 43 44 42 44 49 51 52 52 51 49 47 45 44 43 42 41 40 39 40 42 43 44 44 45 46 48 49 50 50 52 55 59 61 59 54 49 47 47 47 47 47 48 49 50 50 50 49 48 46 45 44 42 41 41 41 41 39 37
38 43 44 42 44 47 47 47 50 54 55 54 53 51 50 48 47 45 44 42 40 39 40 43 44 45 46 46 47 49 50 51 52 53 55 58 60 59 57 54 49 45 45 47 47 47 48 50 51 51 50 49 48 46 45 44 43 43 44 43 42 41 39
39 45 47 46 47 50 50 51 54 56 56 55 54 52 51 49 46 44 43 42 42 43 44 45 46 46 47 48 48 50 51 53 54 56 57 57 55 55 56 55 50 45 44 48 48 48 50 51 51 51 50 49 47 46 44 44 44 44 44 44 43 43 41
41 46 48 48 50 53 51 50 52 55 55 55 54 52 51 49 47 45 45 45 46 46 46 46 46 46 47 48 49 51 53 54 55 56 55 54 53 54 56 56 53 50 49 50 50 50 51 53 52 50 49 48 47 45 45 45 45 44 44 44 45 45 44
42 45 46 48 52 54 51 49 49 49 50 52 53 52 51 50 50 49 48 47 47 46 46 46 46 46 47 48 50 52 53 54 55 55 54 54 55 56 57 57 56 54 53 52 51 51 53 52 51 50 49 48 46 45 45 45 45 45 44 45 46 46 46
45 47 46 49 53 52 48 45 43 41 41 45 49 51 52 52 52 51 50 48 47 47 47 47 47 47 48 49 51 52 53 54 55 54 54 55 56 57 59 59 58 56 55 53 53 53 52 51 50 49 48 47 46 46 46 45 45 45 45 46 46 46 46
45 48 47 47 49 48 42 38 36 35 37 40 43 46 48 49 50 50 49 49 48 48 48 48 49 49 49 50 51 53 54 54 53 52 53 55 58 59 61 61 60 58 55 53 52 52 51 49 49 48 47 47 47 47 46 45 45 45 46 47 47 47 46
29 32 33 34 35 36 35 34 35 37 38 39 40 42 44 45 47 49 49 49 49 50 50 50 51 51 51 52 54 55 54 51 50 51 54 57 59 60 62 62 60 57 53 50 49 49 49 49 49 48 47 47 46 46 46 45 45 46 46 47 47 46 46
Wind_Direction
236 245 247 241 235 238 244 252 257 248 232 230 246 258 264 264 262 259 256 253 250 247 244 242 242 243 245 247 250 252 253 255 256 260 266 270 273 276 276 274 271 273 280 289 297 303 309 314 318 320 322 323 323 321 318 317 318 320 321 323 324 324 323
233 239 243 242 236 232 236 242 249 248 235 228 236 254 266 266 264 259 255 253 251 250 247 244 244 245 246 247 249 252 252 253 256 260 265 270 273 276 276 273 271 274 282 290 299 305 310 314 319 322 323 322 322 321 318 318 319 321 322 323 324 324 322
235 232 231 237 233 225 224 228 235 240 240 236 235 252 266 266 267 264 261 258 254 252 249 247 246 245 247 247 247 249 249 251 255 260 265 269 273 275 274 272 272 276 283 292 299 304 309 314 318 320 321 321 321 319 315 315 317 318 320 321 321 321 321
245 240 230 229 226 222 223 224 227 232 236 235 234 248 264 273 274 271 268 263 256 252 248 246 245 245 246 247 247 247 248 249 253 258 264 269 271 272 271 270 273 278 286 294 297 302 309 314 316 317 320 321 320 317 314 315 317 318 318 318 318 318 318
254 251 235 234 230 229 235 232 227 227 225 221 227 245 259 270 277 277 273 269 262 256 251 248 249 249 249 249 248 248 248 249 252 258 264 267 267 268 269 270 275 283 289 294 297 303 310 313 316 318 320 321 320 318 317 318 319 319 318 316 314 313 314
255 253 244 258 251 235 239 239 228 219 211 211 221 237 247 256 272 285 281 277 273 262 257 255 254 253 253 254 253 254 254 254 255 259 263 264 264 266 269 272 278 285 289 294 300 306 311 313 317 320 320 321 321 319 318 318 319 318 317 315 313 312 312
247 254 255 269 268 246 236 236 233 223 210 207 216 229 241 250 264 285 291 290 284 272 264 260 257 256 256 258 259 260 259 258 258 260 261 261 262 265 270 276 281 285 290 297 304 309 311 313 318 321 321 322 321 319 318 317 317 317 316 314 313 313 312
230 247 253 259 266 256 238 233 239 236 222 212 211 224 244 255 259 273 290 296 292 283 274 265 259 257 255 257 261 261 259 260 260 260 260 260 263 268 274 279 283 287 293 298 304 309 312 315 319 322 322 321 320 319 316 315 315 315 314 313 312 313 314
224 238 248 253 259 255 240 234 238 240 238 228 211 218 238 251 256 261 277 289 295 292 278 267 260 256 255 255 257 259 260 263 263 261 262 264 269 273 277 282 287 292 294 296 298 303 309 315 318 321 321 320 318 316 314 312 311 311 311 311 309 308 309
229 240 248 248 252 251 238 233 234 237 244 241 223 222 232 245 255 259 267 279 292 294 282 267 259 257 256 255 254 257 261 261 260 262 266 270 275 280 283 286 289 293 293 292 292 295 302 308 312 316 317 317 315 314 312 309 308 308 307 307 306 301 296
227 233 241 244 248 250 240 232 234 238 244 245 235 227 228 241 254 259 264 272 282 290 286 270 257 254 256 256 254 257 259 258 261 265 272 278 281 283 284 284 286 290 290 289 289 291 296 302 307 312 315 316 315 314 313 310 307 305 302 301 302 299 293
226 230 240 245 245 247 241 234 234 236 241 242 233 222 222 238 252 257 261 265 271 281 285 275 258 249 252 256 255 257 259 261 265 271 277 281 280 279 280 280 282 285 285 286 289 292 296 301 306 311 315 317 316 316 316 313 309 304 299 296 297 296 295
223 230 241 245 239 238 238 236 234 235 238 237 227 219 223 235 248 255 258 261 265 271 279 279 266 250 250 256 256 258 262 263 266 271 275 277 275 275 276 278 279 280 280 282 288 294 298 302 306 311 316 318 317 316 316 313 310 306 299 294 293 293 294
220 229 240 241 230 229 233 236 239 239 237 234 227 223 226 233 241 249 255 256 259 264 273 280 274 256 249 255 256 257 260 262 264 267 270 272 274 274 274 276 280 281 281 284 291 298 303 306 310 314 317 318 316 315 314 312 309 306 299 294 294 294 294
218 226 238 238 229 230 236 237 240 242 240 237 232 228 228 233 238 244 249 252 255 261 269 278 276 260 249 254 256 254 256 258 261 263 264 267 271 273 275 279 285 288 291 296 300 305 308 311 315 317 318 318 318 316 315 313 309 303 297 295 295 296 295
225 226 231 233 232 234 236 235 236 241 243 244 242 236 230 233 238 241 246 250 254 260 266 274 273 260 249 250 253 251 252 254 257 257 260 265 271 278 284 290 295 300 303 307 308 309 309 312 315 317 318 319 320 319 317 314 309 302 296 296 297 295 294
236 234 228 230 234 235 234 233 235 239 242 246 248 243 233 232 237 240 243 247 253 258 264 270 268 257 248 246 247 247 247 249 252 255 260 266 273 281 289 296 302 306 309 312 313 312 311 312 315 316 317 318 321 321 318 314 309 304 299 298 297 294 292
239 240 235 231 232 235 237 237 237 239 241 244 247 244 236 232 235 239 244 248 252 256 263 267 263 255 251 247 242 241 242 246 252 258 265 271 277 284 292 298 303 307 309 311 312 312 312 314 316 315 315 317 320 321 318 313 309 305 300 296 295 293 292
240 239 240 239 235 232 234 236 237 238 240 242 243 242 239 235 235 238 243 247 250 254 260 264 261 254 252 248 241 238 242 250 257 263 272 280 286 292 296 299 302 304 306 307 308 309 312 315 316 315 314 316 319 320 317 311 307 303 297 295 294 294 293
244 239 237 241 240 233 227 228 232 235 237 239 241 241 240 239 238 237 240 242 244 249 255 259 257 252 250 248 244 244 249 256 261 269 279 288 292 295 297 298 299 301 303 304 306 307 310 314 315 315 314 314 316 318 315 310 305 300 295 294 294 294 294
240 240 236 236 240 240 235 230 231 234 235 238 241 241 240 240 240 238 239 240 240 244 251 253 249 247 250 251 253 256 260 262 266 274 283 289 291 293 295 296 297 299 300 302 304 306 309 312 314 314 312 312 314 316 313 308 304 299 295 294 294 294 294
232 237 239 239 242 246 247 244 239 237 237 237 241 243 241 241 242 240 240 241 239 241 246 246 243 246 252 258 264 267 270 270 273 280 285 287 288 291 292 293 295 297 299 300 302 305 308 310 312 311 310 311 314 313 310 307 303 299 296 295 296 295 295
233 237 241 244 246 248 251 250 244 242 242 239 241 246 245 244 244 240 239 241 238 239 243 243 242 248 255 262 267 271 275 276 278 282 284 285 286 288 290 292 294 296 298 300 301 304 307 308 309 310 310 312 313 312 309 306 302 299 297 296 297 297 297
233 237 241 244 246 248 251 250 244 241 244 242 242 246 246 244 244 241 237 239 238 238 241 242 244 250 256 261 266 271 275 277 278 280 282 284 286 288 290 292 294 295 297 299 300 302 304 305 307 308 308 310 312 311 308 304 301 299 298 297 297 296 296
231 235 239 242 244 245 248 249 243 239 241 241 240 243 243 242 243 242 237 237 239 238 239 242 247 252 256 260 265 269 272 275 277 278 280 283 286 288 290 291 291 292 294 296 298 300 301 303 304 305 306 309 311 309 306 303 301 300 300 298 296 295 294
233 233 235 238 239 238 241 244 242 237 237 238 236 237 238 239 242 242 237 236 238 237 238 243 248 251 255 260 263 267 270 273 275 278 281 283 284 286 287 288 289 289 291 293 296 298 299 300 302 304 305 308 309 307 303 301 300 300 300 297 295 294 294
236 233 234 235 233 231 236 242 240 232 229 232 232 232 235 239 241 240 235 234 236 237 240 244 248 251 255 259 262 264 267 270 273 275 278 280 282 282 282 284 286 287 288 290 293 295 297 298 300 302 305 306 307 305 301 300 301 301 299 296 294 293 293
235 236 236 234 229 228 233 238 235 227 223 226 228 230 233 237 239 237 233 233 236 239 242 246 248 252 256 259 262 263 265 267 269 272 275 278 278 277 276 278 282 285 287 288 291 294 295 297 299 301 304 305 304 302 300 299 301 300 297 295 294 294 293
229 232 234 234 230 228 230 231 227 220 219 220 223 226 229 233 234 233 233 235 237 240 244 247 250 253 256 258 261 262 264 266 268 270 274 275 274 273 273 275 279 283 286 287 290 293 294 296 299 301 303 304 304 301 299 299 300 299 297 297 298 297 294
228 227 230 232 230 226 225 224 218 212 212 215 218 221 225 228 229 230 233 236 238 242 246 249 251 253 255 257 260 263 265 268 270 272 275 276 275 274 274 274 277 281 285 287 289 291 293 296 299 300 301 303 303 302 300 300 300 300 300 302 303 300 295
230 229 231 230 227 222 217 213 210 207 208 212 216 218 222 225 227 229 233 237 241 245 249 251 252 254 256 259 262 264 267 269 272 275 277 276 276 276 276 278 279 280 282 286 287 290 294 297 298 299 300 302 302 302 302 302 301 302 303 304 304 302 298
228 227 227 224 224 221 214 206 205 206 208 212 214 216 220 223 225 229 233 238 243 247 249 250 252 254 257 260 263 265 267 269 272 273 273 274 277 281 285 289 289 283 281 285 287 290 294 297 297 297 299 301 302 303 303 303 302 303 304 304 304 302 300
229 224 221 219 220 218 211 204 203 206 209 212 214 216 219 222 225 229 234 238 242 244 246 248 251 254 257 260 263 265 267 269 270 271 273 277 284 289 293 297 297 292 287 287 289 291 294 295 295 297 299 301 303 304 304 303 303 304 305 304 304 303 301
237 230 222 216 215 213 207 203 204 207 209 212 214 216 219 222 226 230 234 237 240 243 245 249 252 255 259 261 263 265 267 268 270 272 276 281 287 290 293 295 296 295 292 290 289 290 292 294 294 296 299 302 303 303 303 303 304 305 304 304 304 303 302
237 237 230 220 213 209 204 203 205 207 209 212 215 218 221 224 227 230 234 237 240 243 246 250 253 256 259 261 262 264 266 268 270 273 278 282 285 288 291 292 292 292 292 289 287 288 290 292 294 296 300 302 302 302 303 303 303 303 303 303 302 302 302
235 235 236 233 225 216 207 204 205 205 208 212 216 219 222 226 229 232 235 237 240 243 246 250 253 256 257 259 261 263 265 267 269 273 277 281 284 287 289 289 289 289 288 285 285 287 289 291 294 297 300 301 301 302 302 302 302 302 302 302 302 301 301
236 232 233 234 231 223 215 208 204 204 207 212 216 220 223 226 229 232 235 238 240 243 247 250 252 255 257 259 260 261 263 266 270 274 278 281 283 285 286 285 285 286 284 281 282 286 290 292 296 299 300 301 301 301 301 301 301 301 301 301 301 300 300
232 226 222 221 219 216 212 206 203 204 207 211 216 221 224 227 229 232 235 237 240 243 246 248 251 254 256 257 258 260 263 267 271 275 279 281 282 283 283 283 284 286 284 281 282 287 291 294 297 299 300 300 300 299 299 300 301 301 301 301 300 300 299